Weather History for Weaverville, CA

Change the Weather History Date:

Tuesday, January 22, 2013

  Actual Average (KRDD) Record (KRDD)
Temperature  
Mean Temperature 34 °F -  
Max Temperature 46 °F 56 °F 77 °F (2014)
Min Temperature 23 °F 37 °F 25 °F (2002)
Degree Days  
Heating Degree Days 30    
Cooling Degree Days 0    
Moisture  
Dew Point 27 °F    
Average Humidity 81    
Maximum Humidity 100    
Minimum Humidity 50    
Precipitation  
Precipitation 0.00 in 0.19 in 2.39 in (1995)
Month to date precipitation 4.34  
Year to date precipitation 4.34  
Since 1 July precipitation 18.10  
Sea Level Pressure  
Sea Level Pressure 30.12 in    
Wind  
Wind Speed 0 mph (North)    
Max Wind Speed 5 mph    
Max Gust Speed -    
Visibility 9 miles    
Events      
T = Trace of Precipitation, MM = Missing Value Source: NWS Daily Summary

Daily Weather History Graph

Daily Weather History Graph

Search for Another Location

Airport:

Trip Planner

Search our weather history database for the weather conditions in past years. The results will help you decide how hot, cold, wet, or windy it might be!

Date:

Astronomy

Jan. 22, 2013 Rise Set
Actual Time 7:29 AM PST 5:17 PM PST
Civil Twilight 7:00 AM PST 5:47 PM PST
Nautical Twilight 6:26 AM PST 6:20 PM PST
Astronomical Twilight 5:54 AM PST 6:53 PM PST
Moon 1:44 PM PST (1/22) 3:56 AM PST (1/22)
Length of Visible Light 10h 47m
Length of Day
9h 47m
Waxing Gibbous, 83% of the Moon is Illuminated
Jan 22
Waxing Gibbous
Jan 26
Full
Feb 3
Last Quarter
Feb 9
New
Feb 17
First Quarter

Hourly Weather History & Observations

Time (PST) Temp. Windchill Dew Point Humidity Pressure Visibility Wind Dir Wind Speed Gust Speed Precip Events Conditions
12:15 AM 26.6 °F - 24.8 °F 93% 30.21 in 8.0 mi Calm Calm - N/A   Unknown
12:35 AM 26.6 °F - 24.8 °F 93% 30.20 in 10.0 mi Calm Calm - N/A   Unknown
12:55 AM 26.6 °F - 24.8 °F 93% 30.20 in 10.0 mi Calm Calm - N/A   Unknown
1:15 AM 26.6 °F - 24.8 °F 93% 30.20 in 10.0 mi Calm Calm - N/A   Unknown
1:35 AM 26.6 °F - 24.8 °F 93% 30.19 in 8.0 mi Calm Calm - N/A   Unknown
1:55 AM 24.8 °F - 24.8 °F 100% 30.19 in 9.0 mi Calm Calm - N/A   Unknown
2:15 AM 24.8 °F - 24.8 °F 100% 30.19 in 9.0 mi Calm Calm - N/A   Unknown
2:35 AM 24.8 °F - 23.0 °F 93% 30.19 in 9.0 mi Calm Calm - N/A   Unknown
2:55 AM 24.8 °F - 23.0 °F 93% 30.20 in 10.0 mi Calm Calm - N/A   Unknown
3:15 AM 24.8 °F - 23.0 °F 93% 30.19 in 10.0 mi Calm Calm - N/A   Unknown
3:35 AM 24.8 °F - 23.0 °F 93% 30.19 in 10.0 mi Calm Calm - N/A   Unknown
3:55 AM 24.8 °F - 23.0 °F 93% 30.18 in 10.0 mi Calm Calm - N/A   Unknown
4:15 AM 24.8 °F - 23.0 °F 93% 30.18 in 10.0 mi Calm Calm - N/A   Unknown
4:55 AM 23.0 °F - 21.2 °F 93% 30.18 in 10.0 mi Calm Calm - N/A   Unknown
5:15 AM 23.0 °F - 21.2 °F 93% 30.18 in 10.0 mi Calm Calm - N/A   Unknown
5:35 AM 23.0 °F - 21.2 °F 93% 30.17 in 10.0 mi Calm Calm - N/A   Unknown
6:15 AM 23.0 °F - 21.2 °F 93% 30.18 in 10.0 mi Calm Calm - N/A   Unknown
6:35 AM 23.0 °F - 21.2 °F 93% 30.18 in 10.0 mi Calm Calm - N/A   Unknown
6:55 AM 23.0 °F - 21.2 °F 93% 30.18 in 10.0 mi Calm Calm - N/A   Unknown
7:15 AM 23.0 °F - 19.4 °F 86% 30.18 in 7.0 mi Calm Calm - N/A   Unknown
7:35 AM 23.0 °F - 19.4 °F 86% 30.18 in 8.0 mi Calm Calm - N/A   Unknown
7:55 AM 23.0 °F 18.4 °F 21.2 °F 93% 30.17 in 8.0 mi North 3.5 mph - N/A   Unknown
8:15 AM 23.0 °F - 21.2 °F 93% 30.18 in 10.0 mi Calm Calm - N/A   Unknown
8:35 AM 24.8 °F - 23.0 °F 93% 30.18 in 10.0 mi Calm Calm - N/A   Unknown
8:55 AM 26.6 °F - 24.8 °F 93% 30.18 in 10.0 mi Calm Calm - N/A   Unknown
9:15 AM 26.6 °F - 24.8 °F 93% 30.18 in 10.0 mi Calm Calm - N/A   Unknown
9:35 AM 26.6 °F - 24.8 °F 93% 30.18 in 9.0 mi Calm Calm - N/A   Unknown
9:55 AM 28.4 °F - 24.8 °F 86% 30.18 in 8.0 mi Calm Calm - N/A   Unknown
10:15 AM 30.2 °F - 26.6 °F 86% 30.18 in 9.0 mi Calm Calm - N/A   Unknown
10:35 AM 32.0 °F 28.7 °F 28.4 °F 87% 30.18 in 10.0 mi SW 3.5 mph - N/A   Unknown
10:55 AM 32.0 °F - 28.4 °F 87% 30.18 in 8.0 mi Calm Calm - N/A   Unknown
11:15 AM 35.6 °F - 26.6 °F 70% 30.17 in 10.0 mi Calm Calm - N/A   Unknown
11:35 AM 37.4 °F - 28.4 °F 70% 30.16 in 10.0 mi Calm Calm - N/A   Unknown
11:55 AM 39.2 °F 37.0 °F 28.4 °F 65% 30.14 in 10.0 mi South 3.5 mph - N/A   Unknown
12:15 PM 39.2 °F - 28.4 °F 65% 30.13 in 10.0 mi Calm Calm - N/A   Unknown
12:35 PM 41.0 °F - 28.4 °F 61% 30.12 in 10.0 mi Calm Calm - N/A   Unknown
12:55 PM 44.6 °F - 28.4 °F 53% 30.11 in 10.0 mi Calm Calm - N/A   Unknown
1:15 PM 44.6 °F - 28.4 °F 53% 30.09 in 10.0 mi Calm Calm - N/A   Unknown
1:35 PM 44.6 °F - 28.4 °F 53% 30.09 in 10.0 mi Calm Calm - N/A   Unknown
1:55 PM 46.4 °F - 28.4 °F 50% 30.08 in 10.0 mi Calm Calm - N/A   Unknown
2:15 PM 46.4 °F - 28.4 °F 50% 30.07 in 10.0 mi Calm Calm - N/A   Unknown
2:35 PM 46.4 °F - 28.4 °F 50% 30.06 in 10.0 mi Calm Calm - N/A   Unknown
2:55 PM 46.4 °F - 30.2 °F 53% 30.06 in 10.0 mi Calm Calm - N/A   Unknown
3:15 PM 46.4 °F - 30.2 °F 53% 30.06 in 10.0 mi Calm Calm - N/A   Unknown
3:35 PM 46.4 °F - 30.2 °F 53% 30.06 in 10.0 mi Calm Calm - N/A   Unknown
3:55 PM 46.4 °F - 32.0 °F 57% 30.05 in 10.0 mi Calm Calm - N/A   Unknown
4:15 PM 44.6 °F - 32.0 °F 61% 30.05 in 4.0 mi Calm Calm - N/A   Unknown
4:35 PM 42.8 °F - 32.0 °F 66% 30.05 in 10.0 mi Calm Calm - N/A   Unknown
4:55 PM 41.0 °F - 32.0 °F 70% 30.05 in 9.0 mi Calm Calm - N/A   Unknown
5:15 PM 39.2 °F 37.0 °F 32.0 °F 75% 30.05 in 10.0 mi North 3.5 mph - N/A   Unknown
5:35 PM 37.4 °F - 32.0 °F 81% 30.04 in 10.0 mi Calm Calm - N/A   Unknown
5:55 PM 37.4 °F - 32.0 °F 81% 30.04 in 5.0 mi Calm Calm - N/A   Unknown
6:15 PM 37.4 °F - 32.0 °F 81% 30.04 in 7.0 mi Calm Calm - N/A   Unknown
6:35 PM 35.6 °F - 32.0 °F 87% 30.04 in 6.0 mi Calm Calm - N/A   Unknown
6:55 PM 35.6 °F 32.8 °F 32.0 °F 87% 30.04 in 7.0 mi North 3.5 mph - N/A   Unknown
7:15 PM 35.6 °F 32.8 °F 30.2 °F 81% 30.04 in 7.0 mi NNE 3.5 mph - N/A   Unknown
7:35 PM 35.6 °F 32.8 °F 30.2 °F 81% 30.05 in 8.0 mi NNE 3.5 mph - N/A   Unknown
7:55 PM 35.6 °F - 30.2 °F 81% 30.05 in 7.0 mi Calm Calm - N/A   Unknown
8:35 PM 33.8 °F - 30.2 °F 87% 30.05 in 6.0 mi Calm Calm - N/A   Unknown
8:55 PM 33.8 °F - 30.2 °F 87% 30.05 in 5.0 mi Calm Calm - N/A   Unknown
9:15 PM 33.8 °F 30.8 °F 30.2 °F 87% 30.05 in 5.0 mi North 3.5 mph - N/A   Unknown
9:35 PM 33.8 °F - 30.2 °F 87% 30.06 in 5.0 mi Calm Calm - N/A   Unknown
9:55 PM 33.8 °F - 30.2 °F 87% 30.06 in 7.0 mi Calm Calm - N/A   Unknown
10:15 PM 33.8 °F - 30.2 °F 87% 30.06 in 7.0 mi Calm Calm - N/A   Unknown
10:35 PM 33.8 °F - 30.2 °F 87% 30.06 in 6.0 mi Calm Calm - N/A   Unknown
10:55 PM 32.0 °F 27.5 °F 30.2 °F 93% 30.06 in 5.0 mi North 4.6 mph - N/A   Unknown
11:15 PM 32.0 °F 28.7 °F 28.4 °F 87% 30.07 in 5.0 mi North 3.5 mph - N/A   Unknown
11:35 PM 32.0 °F 28.7 °F 28.4 °F 87% 30.06 in 7.0 mi North 3.5 mph - N/A   Unknown
11:55 PM 32.0 °F - 28.4 °F 87% 30.06 in 7.0 mi Calm Calm - N/A   Unknown